Location: Ottawa
(45.4170°N, 75.7000°W)
Time: 09:16:58
(UTC-04:00)

ISS - Visible Passes

Search period start: 01 August 2021 00:00
Search period end: 11 August 2021 00:00
Orbit: 419 x 421 km, 51.6° (Epoch: 31 July)

Date Brightness Start Highest point End Pass type
(mag) Time Alt. Az. Time Alt. Az. Time Alt. Az.
01 Aug -3.0 21:04:19 10° WNW 21:07:35 46° SW 21:10:50 10° SE visible
02 Aug -1.1 21:55:23 10° WSW 21:56:35 12° SW 21:57:47 10° SSW visible
03 Aug -1.5 21:07:02 10° W 21:09:27 18° SW 21:11:52 10° S visible
